ProjectID,Date,Electric Generation,Electric Utility Import,Facility Electric Load
,YYYY-MM-DD,kW,kW,kW
543,2017-12-01,0.0,,0.0
543,2017-12-02,0.0,,0.0
543,2017-12-03,0.0,,0.0
543,2017-12-04,0.0,,0.0
543,2017-12-05,0.0,,0.0
543,2017-12-06,0.0,,0.0
543,2017-12-07,0.0,,0.0
543,2017-12-08,0.0,,0.0
543,2017-12-09,0.0,,0.0
543,2017-12-10,0.0,,0.0
543,2017-12-11,0.0,,0.0
543,2017-12-12,0.0,,0.0
543,2017-12-13,35.28554166666667,,35.28554166666667
543,2017-12-14,4.874458333333333,,4.874458333333333
543,2017-12-15,0.0,,0.0
543,2017-12-16,0.0,,0.0
543,2017-12-17,0.0,,0.0
543,2017-12-18,0.0,,0.0
543,2017-12-19,0.0,,0.0
543,2017-12-20,0.0,,0.0
543,2017-12-21,25.447208333333336,,25.447208333333336
543,2017-12-22,12.026499999999999,,12.026499999999999
543,2017-12-23,4.305625,,4.305625
543,2017-12-24,39.44204166666667,,39.44204166666667
543,2017-12-25,56.827916666666674,,56.827916666666674
543,2017-12-26,54.383375,,54.383375
543,2017-12-27,63.40166666666667,,63.40166666666667
543,2017-12-28,67.92108333333333,,67.92108333333333
543,2017-12-29,56.73954166666667,,56.73954166666667
543,2017-12-30,5.3261666666666665,,5.3261666666666665
543,2017-12-31,8.105583333333332,,8.105583333333332
543,2018-01-01,16.368125,,16.368125
543,2018-01-02,0.0,,0.0
543,2018-01-03,0.0,,0.0
543,2018-01-04,0.0,,0.0
543,2018-01-05,0.0,,0.0
543,2018-01-06,0.0,,0.0
543,2018-01-07,10.754333333333333,,10.754333333333333
543,2018-01-08,5.583333333333333,,5.583333333333333
543,2018-01-09,10.017458333333334,,10.017458333333334
543,2018-01-10,11.862416666666668,,11.862416666666668
543,2018-01-11,3.2144166666666663,,3.2144166666666663
543,2018-01-12,1.999666666666667,,1.999666666666667
543,2018-01-13,13.936666666666667,,13.936666666666667
543,2018-01-14,16.018541666666668,,16.018541666666668
543,2018-01-15,15.263208333333331,,15.263208333333331
543,2018-01-16,7.82825,,7.82825
543,2018-01-17,21.014374999999998,,21.014374999999998
543,2018-01-18,80.49933333333333,,80.49933333333333
543,2018-01-19,54.53525,,54.53525
543,2018-01-20,82.84637500000001,,82.84637500000001
543,2018-01-21,71.70566666666666,,71.70566666666666
543,2018-01-22,38.20241666666667,,38.20241666666667
543,2018-01-23,28.310833333333335,,28.310833333333335
543,2018-01-24,65.890875,,65.890875
543,2018-01-25,86.78641666666665,,86.78641666666665
543,2018-01-26,81.90308333333334,,81.90308333333334
543,2018-01-27,70.94629166666667,,70.94629166666667
543,2018-01-28,17.5825,,17.5825
543,2018-01-29,49.96933333333334,,49.96933333333334
543,2018-01-30,6.2444999999999995,,6.2444999999999995
543,2018-01-31,85.25645833333334,,85.25645833333334
543,2018-02-01,46.79266666666666,,46.79266666666666
543,2018-02-02,69.55229166666668,,69.55229166666668
543,2018-02-03,89.80633333333333,,89.80633333333333
543,2018-02-04,34.96874999999999,,34.96874999999999
543,2018-02-05,102.28554166666669,,102.28554166666669
543,2018-02-06,37.98591666666667,,37.98591666666667
543,2018-02-07,3.5345,,3.5345
543,2018-02-08,94.75462499999999,,94.75462499999999
543,2018-02-09,57.35974999999999,,57.35974999999999
543,2018-02-10,35.09633333333333,,35.09633333333333
543,2018-02-11,12.999041666666669,,12.999041666666669
543,2018-02-12,45.30229166666666,,45.30229166666666
543,2018-02-13,103.82320833333334,,103.82320833333334
543,2018-02-14,71.08558333333333,,71.08558333333333
543,2018-02-15,42.90641666666667,,42.90641666666667
543,2018-02-16,30.545708333333337,,30.545708333333337
543,2018-02-17,85.93633333333332,,85.93633333333332
543,2018-02-18,15.802625,,15.802625
543,2018-02-19,37.34937499999999,,37.34937499999999
543,2018-02-20,67.17725,,67.17725
543,2018-02-21,82.83241666666667,,82.83241666666667
543,2018-02-22,15.845458333333335,,15.845458333333335
543,2018-02-23,19.375041666666664,,19.375041666666664
543,2018-02-24,42.33525,,42.33525
543,2018-02-25,18.559083333333337,,18.559083333333337
543,2018-02-26,52.89154166666666,,52.89154166666666
543,2018-02-27,130.51525,,130.51525
543,2018-02-28,123.49366666666668,,123.49366666666668
543,2018-03-01,64.83766666666668,,64.83766666666668
543,2018-03-02,12.576958333333335,,12.576958333333335
543,2018-03-03,121.37266666666666,,121.37266666666666
543,2018-03-04,67.92725,,67.92725
543,2018-03-05,87.96833333333332,,87.96833333333332
543,2018-03-06,138.35187499999998,,138.35187499999998
543,2018-03-07,12.65804166666667,,12.65804166666667
543,2018-03-08,6.4281250000000005,,6.4281250000000005
543,2018-03-09,43.59433333333334,,43.59433333333334
543,2018-03-10,94.43508333333335,,94.43508333333335
543,2018-03-11,143.35720833333335,,143.35720833333335
543,2018-03-12,75.78637500000002,,75.78637500000002
543,2018-03-13,35.976708333333335,,35.976708333333335
543,2018-03-14,116.14083333333332,,116.14083333333332
543,2018-03-15,139.08208333333332,,139.08208333333332
543,2018-03-16,95.58904166666666,,95.58904166666666
543,2018-03-17,137.77104166666666,,137.77104166666666
543,2018-03-18,154.83945833333334,,154.83945833333334
543,2018-03-19,146.80441666666667,,146.80441666666667
543,2018-03-20,38.16879166666667,,38.16879166666667
543,2018-03-21,1.1814583333333333,,1.1814583333333333
543,2018-03-22,1.8847500000000001,,1.8847500000000001
543,2018-03-23,26.115874999999992,,26.115874999999992
543,2018-03-24,81.27379166666667,,81.27379166666667
543,2018-03-25,46.053374999999996,,46.053374999999996
543,2018-03-26,86.64533333333333,,86.64533333333333
543,2018-03-27,50.41408333333333,,50.41408333333333
543,2018-03-28,37.77995833333333,,37.77995833333333
543,2018-03-29,19.12170833333333,,19.12170833333333
543,2018-03-30,29.506583333333328,,29.506583333333328
543,2018-03-31,90.80787500000001,,90.80787500000001
543,2018-04-01,52.793499999999995,,52.793499999999995
543,2018-04-02,1.0605,,1.0605
543,2018-04-03,3.8074583333333334,,3.8074583333333334
543,2018-04-04,19.201666666666664,,19.201666666666664
543,2018-04-05,76.45491666666666,,76.45491666666666
543,2018-04-06,44.45216666666666,,44.45216666666666
543,2018-04-07,68.18666666666667,,68.18666666666667
543,2018-04-08,84.54620833333333,,84.54620833333333
543,2018-04-09,148.8476666666667,,148.8476666666667
543,2018-04-10,102.71470833333332,,102.71470833333332
543,2018-04-11,158.159,,158.159
543,2018-04-12,133.63720833333335,,133.63720833333335
543,2018-04-13,152.87983333333332,,152.87983333333332
543,2018-04-14,176.1821666666667,,176.1821666666667
543,2018-04-15,41.39033333333333,,41.39033333333333
543,2018-04-16,85.0895,,85.0895
543,2018-04-17,81.43575000000001,,81.43575000000001
543,2018-04-18,168.50333333333336,,168.50333333333336
543,2018-04-19,59.97416666666666,,59.97416666666666
543,2018-04-20,198.66454166666665,,198.66454166666665
543,2018-04-21,200.08629166666665,,200.08629166666665
543,2018-04-22,204.13829166666667,,204.13829166666667
543,2018-04-23,204.4694166666667,,204.4694166666667
543,2018-04-24,169.86233333333334,,169.86233333333334
543,2018-04-25,40.52829166666667,,40.52829166666667
543,2018-04-26,201.90854166666668,,201.90854166666668
543,2018-04-27,39.437333333333335,,39.437333333333335
543,2018-04-28,178.10466666666662,,178.10466666666662
543,2018-04-29,148.85741666666667,,148.85741666666667
543,2018-04-30,111.30858333333332,,111.30858333333332
543,2018-05-01,202.94658333333328,,202.94658333333328
543,2018-05-02,200.93458333333334,,200.93458333333334
543,2018-05-03,189.8285,,189.8285
543,2018-05-04,104.3685,,104.3685
543,2018-05-05,143.36225000000002,,143.36225000000002
543,2018-05-06,56.91566666666665,,56.91566666666665
543,2018-05-07,170.54462500000002,,170.54462500000002
543,2018-05-08,204.97654166666675,,204.97654166666675
543,2018-05-09,201.28975000000003,,201.28975000000003
543,2018-05-10,132.3789166666667,,132.3789166666667
543,2018-05-11,197.274375,,197.274375
543,2018-05-12,44.533875,,44.533875
543,2018-05-13,40.849250000000005,,40.849250000000005
543,2018-05-14,151.3467083333333,,151.3467083333333
543,2018-05-15,170.55504166666665,,170.55504166666665
543,2018-05-16,34.09891666666666,,34.09891666666666
543,2018-05-17,78.79854166666665,,78.79854166666665
543,2018-05-18,87.945625,,87.945625
543,2018-05-19,33.10675,,33.10675
543,2018-05-20,137.00783333333334,,137.00783333333334
543,2018-05-21,208.79849999999996,,208.79849999999996
543,2018-05-22,53.897124999999996,,53.897124999999996
543,2018-05-23,155.49316666666667,,155.49316666666667
543,2018-05-24,206.35775000000004,,206.35775000000004
543,2018-05-25,202.07425000000003,,202.07425000000003
543,2018-05-26,176.82450000000006,,176.82450000000006
543,2018-05-27,38.69991666666666,,38.69991666666666
543,2018-05-28,107.83720833333332,,107.83720833333332
543,2018-05-29,185.12958333333333,,185.12958333333333
543,2018-05-30,149.86587500000002,,149.86587500000002
543,2018-05-31,42.978833333333334,,42.978833333333334
543,2018-06-01,136.9417083333333,,136.9417083333333
543,2018-06-02,176.50066666666666,,176.50066666666666
543,2018-06-03,83.28608333333334,,83.28608333333334
543,2018-06-04,156.33045833333335,,156.33045833333335
543,2018-06-05,148.55533333333332,,148.55533333333332
543,2018-06-06,109.89616666666666,,109.89616666666666
543,2018-06-07,166.14091666666667,,166.14091666666667
543,2018-06-08,187.84995833333335,,187.84995833333335
543,2018-06-09,197.9612916666667,,197.9612916666667
543,2018-06-10,60.86816666666667,,60.86816666666667
543,2018-06-11,182.6916666666667,,182.6916666666667
543,2018-06-12,225.20054166666668,,225.20054166666668
543,2018-06-13,72.013,,72.013
543,2018-06-14,214.11529166666665,,214.11529166666665
543,2018-06-15,151.55304166666664,,151.55304166666664
543,2018-06-16,219.7099166666667,,219.7099166666667
543,2018-06-17,211.2145416666667,,211.2145416666667
543,2018-06-18,190.66245833333332,,190.66245833333332
543,2018-06-19,193.24904166666667,,193.24904166666667
543,2018-06-20,185.12529166666664,,185.12529166666664
543,2018-06-21,187.17775000000003,,187.17775000000003
543,2018-06-22,141.13866666666667,,141.13866666666667
543,2018-06-23,65.593125,,65.593125
543,2018-06-24,146.66145833333334,,146.66145833333334
543,2018-06-25,189.21875,,189.21875
543,2018-06-26,217.38020833333334,,217.38020833333334
543,2018-06-27,64.00195833333332,,64.00195833333332
543,2018-06-28,124.89325000000001,,124.89325000000001
543,2018-06-29,198.6112916666667,,198.6112916666667
543,2018-06-30,212.9069166666666,,212.9069166666666
543,2018-07-01,184.45900000000003,,184.45900000000003
543,2018-07-02,209.76491666666666,,209.76491666666666
543,2018-07-03,121.66279166666665,,121.66279166666665
543,2018-07-04,134.574875,,134.574875
543,2018-07-05,178.44791666666663,,178.44791666666663
543,2018-07-06,68.64649999999999,,68.64649999999999
543,2018-07-07,225.95179166666665,,225.95179166666665
543,2018-07-08,220.13479166666662,,220.13479166666662
543,2018-07-09,216.14516666666665,,216.14516666666665
543,2018-07-10,211.31183333333334,,211.31183333333334
543,2018-07-11,178.41341666666668,,178.41341666666668
543,2018-07-12,141.8359583333333,,141.8359583333333
543,2018-07-13,202.60220833333335,,202.60220833333335
543,2018-07-14,195.94204166666668,,195.94204166666668
543,2018-07-15,107.87695833333333,,107.87695833333333
543,2018-07-16,180.62045833333335,,180.62045833333335
543,2018-07-17,126.94666666666666,,126.94666666666666
543,2018-07-18,200.4908333333333,,200.4908333333333
543,2018-07-19,215.13999999999996,,215.13999999999996
543,2018-07-20,209.63470833333335,,209.63470833333335
543,2018-07-21,159.34245833333333,,159.34245833333333
543,2018-07-22,107.875,,107.875
543,2018-07-23,116.04170833333332,,116.04170833333332
543,2018-07-24,157.12366666666665,,157.12366666666665
543,2018-07-25,65.37695833333333,,65.37695833333333
543,2018-07-26,115.41083333333331,,115.41083333333331
543,2018-07-27,137.681625,,137.681625
543,2018-07-28,156.64779166666665,,156.64779166666665
543,2018-07-29,156.97525000000005,,156.97525000000005
543,2018-07-30,89.22266666666668,,89.22266666666668
543,2018-07-31,165.69075,,165.69075
543,2018-08-01,120.27862499999999,,120.27862499999999
543,2018-08-02,143.20833333333334,,143.20833333333334
543,2018-08-03,92.84575000000001,,92.84575000000001
543,2018-08-04,104.000625,,104.000625
543,2018-08-05,179.23958333333334,,179.23958333333334
543,2018-08-06,170.09375000000003,,170.09375000000003
543,2018-08-07,150.71679166666664,,150.71679166666664
543,2018-08-08,168.11195833333335,,168.11195833333335
543,2018-08-09,145.20833333333337,,145.20833333333337
543,2018-08-10,151.15433333333334,,151.15433333333334
543,2018-08-11,48.49670833333334,,48.49670833333334
543,2018-08-12,133.70445833333335,,133.70445833333335
543,2018-08-13,40.44658333333333,,40.44658333333333
543,2018-08-14,121.91670833333332,,121.91670833333332
543,2018-08-15,170.16466666666665,,170.16466666666665
543,2018-08-16,146.0905,,146.0905
543,2018-08-17,129.31708333333333,,129.31708333333333
543,2018-08-18,111.65170833333333,,111.65170833333333
543,2018-08-19,41.57745833333333,,41.57745833333333
543,2018-08-20,69.33137500000001,,69.33137500000001
543,2018-08-21,141.168,,141.168
543,2018-08-22,117.00716666666666,,117.00716666666666
543,2018-08-23,164.01104166666667,,164.01104166666667
543,2018-08-24,156.59504166666667,,156.59504166666667
543,2018-08-25,146.56904166666666,,146.56904166666666
543,2018-08-26,137.52012500000004,,137.52012500000004
543,2018-08-27,129.85025,,129.85025
543,2018-08-28,150.71879166666665,,150.71879166666665
543,2018-08-29,151.4095,,151.4095
543,2018-08-30,132.10741666666667,,132.10741666666667
543,2018-08-31,45.683625,,45.683625
543,2018-09-01,123.72979166666666,,123.72979166666666
543,2018-09-02,123.52408333333335,,123.52408333333335
543,2018-09-03,142.555375,,142.555375
543,2018-09-04,124.55725000000001,,124.55725000000001
543,2018-09-05,142.75,,142.75
543,2018-09-06,124.38870833333334,,124.38870833333334
543,2018-09-07,36.977875000000004,,36.977875000000004
543,2018-09-08,49.37691666666666,,49.37691666666666
543,2018-09-09,26.289083333333327,,26.289083333333327
543,2018-09-10,28.74608333333333,,28.74608333333333
543,2018-09-11,50.66079166666666,,50.66079166666666
543,2018-09-12,39.153,,39.153
543,2018-09-13,49.34312499999999,,49.34312499999999
543,2018-09-14,53.361291666666666,,53.361291666666666
543,2018-09-15,92.41279166666668,,92.41279166666668
543,2018-09-16,123.67445833333333,,123.67445833333333
543,2018-09-17,64.62045833333333,,64.62045833333333
543,2018-09-18,33.792291666666664,,33.792291666666664
543,2018-09-19,109.30662500000001,,109.30662500000001
543,2018-09-20,70.02020833333333,,70.02020833333333
543,2018-09-21,39.28191666666667,,39.28191666666667
543,2018-09-22,108.52475,,108.52475
543,2018-09-23,32.591791666666666,,32.591791666666666
543,2018-09-24,76.58008333333335,,76.58008333333335
543,2018-09-25,20.086541666666665,,20.086541666666665
543,2018-09-26,83.40495833333334,,83.40495833333334
543,2018-09-27,113.36133333333333,,113.36133333333333
543,2018-09-28,39.837916666666665,,39.837916666666665
543,2018-09-29,123.6445,,123.6445
543,2018-09-30,125.537125,,125.537125
543,2018-10-01,66.05470833333332,,66.05470833333332
543,2018-10-02,80.52274999999999,,80.52274999999999
543,2018-10-03,119.12308333333334,,119.12308333333334
543,2018-10-04,82.86908333333332,,82.86908333333332
543,2018-10-05,88.06516666666668,,88.06516666666668
543,2018-10-06,19.096958333333337,,19.096958333333337
543,2018-10-07,57.412125,,57.412125
543,2018-10-08,13.326166666666667,,13.326166666666667
543,2018-10-09,39.75066666666667,,39.75066666666667
543,2018-10-10,73.92254166666667,,73.92254166666667
543,2018-10-11,30.762333333333334,,30.762333333333334
543,2018-10-12,109.93033333333335,,109.93033333333335
543,2018-10-13,50.585958333333316,,50.585958333333316
543,2018-10-14,60.625,,60.625
543,2018-10-15,18.979166666666668,,18.979166666666668
543,2018-10-16,89.38866666666668,,89.38866666666668
543,2018-10-17,116.21941666666667,,116.21941666666667
543,2018-10-18,125.857375,,125.857375
543,2018-10-19,110.63416666666666,,110.63416666666666
543,2018-10-20,71.62237499999999,,71.62237499999999
543,2018-10-21,86.34570833333333,,86.34570833333333
543,2018-10-22,65.869125,,65.869125
543,2018-10-23,90.99416666666667,,90.99416666666667
543,2018-10-24,90.40362499999999,,90.40362499999999
543,2018-10-25,111.25520833333333,,111.25520833333333
543,2018-10-26,61.517583333333334,,61.517583333333334
543,2018-10-27,17.140583333333332,,17.140583333333332
543,2018-10-28,48.05866666666665,,48.05866666666665
543,2018-10-29,50.07745833333333,,50.07745833333333
543,2018-10-30,105.24808333333334,,105.24808333333334
543,2018-10-31,93.46150000000002,,93.46150000000002
543,2018-11-01,83.308625,,83.308625
543,2018-11-02,23.483750000000004,,23.483750000000004
543,2018-11-03,64.12433333333334,,64.12433333333334
543,2018-11-04,99.178375,,99.178375
543,2018-11-05,17.51045833333333,,17.51045833333333
543,2018-11-06,10.686833333333333,,10.686833333333333
543,2018-11-07,83.207,,83.207
543,2018-11-08,84.48308333333334,,84.48308333333334
543,2018-11-09,23.51958333333333,,23.51958333333333
543,2018-11-10,78.43875,,78.43875
543,2018-11-11,92.75458333333331,,92.75458333333331
543,2018-11-12,67.34374999999999,,67.34374999999999
543,2018-11-13,22.992833333333333,,22.992833333333333
543,2018-11-14,87.72587499999999,,87.72587499999999
543,2018-11-15,11.869791666666666,,11.869791666666666
543,2018-11-16,25.550125000000005,,25.550125000000005
543,2018-11-17,61.16475,,61.16475
543,2018-11-18,33.82091666666667,,33.82091666666667
543,2018-11-19,54.40562499999999,,54.40562499999999
543,2018-11-20,36.62175,,36.62175
543,2018-11-21,49.56575000000001,,49.56575000000001
543,2018-11-22,83.12108333333335,,83.12108333333335
543,2018-11-23,79.51045833333332,,79.51045833333332
543,2018-11-24,25.236958333333334,,25.236958333333334
543,2018-11-25,58.78254166666667,,58.78254166666667
543,2018-11-26,13.374333333333333,,13.374333333333333
543,2018-11-27,43.908874999999995,,43.908874999999995
543,2018-11-28,34.448583333333325,,34.448583333333325
543,2018-11-29,67.08008333333333,,67.08008333333333
543,2018-11-30,22.002624999999995,,22.002624999999995
543,2018-12-01,57.750625000000014,,57.750625000000014
543,2018-12-02,12.896458333333333,,12.896458333333333
543,2018-12-03,44.370458333333325,,44.370458333333325
543,2018-12-04,62.30925,,62.30925
543,2018-12-05,51.49608333333333,,51.49608333333333
543,2018-12-06,55.33529166666667,,55.33529166666667
543,2018-12-07,70.32291666666667,,70.32291666666667
543,2018-12-08,63.243458333333336,,63.243458333333336
543,2018-12-09,39.920625,,39.920625
543,2018-12-10,65.791625,,65.791625
543,2018-12-11,53.12633333333332,,53.12633333333332
543,2018-12-12,39.528625,,39.528625
543,2018-12-13,8.571583333333333,,8.571583333333333
543,2018-12-14,22.88025,,22.88025
543,2018-12-15,11.829458333333333,,11.829458333333333
543,2018-12-16,5.904916666666666,,5.904916666666666
543,2018-12-17,42.658875,,42.658875
543,2018-12-18,66.04429166666667,,66.04429166666667
543,2018-12-19,61.97912499999999,,61.97912499999999
543,2018-12-20,30.65624999999999,,30.65624999999999
543,2018-12-21,8.2995,,8.2995
543,2018-12-22,39.41795833333333,,39.41795833333333
543,2018-12-23,65.112,,65.112
543,2018-12-24,30.76691666666667,,30.76691666666667
543,2018-12-25,57.91016666666667,,57.91016666666667
543,2018-12-26,51.90233333333333,,51.90233333333333
543,2018-12-27,62.317708333333336,,62.317708333333336
543,2018-12-28,7.205708333333333,,7.205708333333333
543,2018-12-29,53.42187500000001,,53.42187500000001
543,2018-12-30,21.195333333333334,,21.195333333333334
543,2018-12-31,21.828125,,21.828125
543,2019-01-01,46.681000000000004,,46.681000000000004
543,2019-01-02,52.17575,,52.17575
543,2019-01-03,39.806000000000004,,39.806000000000004
543,2019-01-04,48.51562499999999,,48.51562499999999
543,2019-01-05,13.324208333333333,,13.324208333333333
543,2019-01-06,35.14325,,35.14325
543,2019-01-07,64.74995833333334,,64.74995833333334
543,2019-01-08,15.68625,,15.68625
543,2019-01-09,53.118458333333336,,53.118458333333336
543,2019-01-10,44.084624999999996,,44.084624999999996
543,2019-01-11,74.964875,,74.964875
543,2019-01-12,55.666666666666664,,55.666666666666664
543,2019-01-13,55.19533333333333,,55.19533333333333
543,2019-01-14,73.23562499999998,,73.23562499999998
543,2019-01-15,70.696625,,70.696625
543,2019-01-16,29.94141666666667,,29.94141666666667
543,2019-01-17,60.99608333333333,,60.99608333333333
543,2019-01-18,21.382833333333334,,21.382833333333334
543,2019-01-19,26.33070833333333,,26.33070833333333
543,2019-01-20,14.8815,,14.8815
543,2019-01-21,68.75391666666667,,68.75391666666667
543,2019-01-22,75.14583333333333,,75.14583333333333
543,2019-01-23,25.045583333333337,,25.045583333333337
543,2019-01-24,7.085916666666667,,7.085916666666667
543,2019-01-25,68.82295833333333,,68.82295833333333
543,2019-01-26,75.44529166666668,,75.44529166666668
543,2019-01-27,57.72916666666666,,57.72916666666666
543,2019-01-28,57.60808333333335,,57.60808333333335
543,2019-01-29,16.075499999999995,,16.075499999999995
543,2019-01-30,73.069,,73.069
543,2019-01-31,68.88025,,68.88025
543,2019-02-01,51.79683333333333,,51.79683333333333
543,2019-02-02,73.99741666666667,,73.99741666666667
543,2019-02-03,68.74083333333333,,68.74083333333333
543,2019-02-04,47.464875,,47.464875
543,2019-02-05,35.763041666666666,,35.763041666666666
543,2019-02-06,35.432291666666664,,35.432291666666664
543,2019-02-07,15.427041666666668,,15.427041666666668
543,2019-02-08,20.515666666666664,,20.515666666666664
543,2019-02-09,54.89191666666667,,54.89191666666667
543,2019-02-10,45.59245833333333,,45.59245833333333
543,2019-02-11,23.13804166666667,,23.13804166666667
543,2019-02-12,1.5194999999999999,,1.5194999999999999
543,2019-02-13,31.02995833333333,,31.02995833333333
543,2019-02-14,52.35412499999999,,52.35412499999999
543,2019-02-15,23.270875000000004,,23.270875000000004
543,2019-02-16,56.52470833333333,,56.52470833333333
543,2019-02-17,47.572916666666664,,47.572916666666664
543,2019-02-18,18.88933333333333,,18.88933333333333
543,2019-02-19,57.924499999999995,,57.924499999999995
543,2019-02-20,5.544250000000001,,5.544250000000001
543,2019-02-21,37.725249999999996,,37.725249999999996
543,2019-02-22,40.268208333333334,,40.268208333333334
543,2019-02-23,34.14458333333334,,34.14458333333334
543,2019-02-24,12.233041666666667,,12.233041666666667
543,2019-02-25,61.270833333333336,,61.270833333333336
543,2019-02-26,64.97658333333334,,64.97658333333334
543,2019-02-27,42.63541666666667,,42.63541666666667
543,2019-02-28,60.056000000000004,,60.056000000000004
543,2019-03-01,11.3815,,11.3815
543,2019-03-02,1.2812499999999998,,1.2812499999999998
543,2019-03-03,41.47266666666667,,41.47266666666667
543,2019-03-04,7.151,,7.151
543,2019-03-05,24.72008333333334,,24.72008333333334
543,2019-03-06,23.626291666666663,,23.626291666666663
543,2019-03-07,22.743458333333333,,22.743458333333333
543,2019-03-08,54.21358333333334,,54.21358333333334
543,2019-03-09,141.12104166666668,,141.12104166666668
543,2019-03-10,22.537791666666667,,22.537791666666667
543,2019-03-11,150.21358333333333,,150.21358333333333
543,2019-03-12,130.44916666666666,,130.44916666666666
543,2019-03-13,122.46225,,122.46225
543,2019-03-14,130.53779166666666,,130.53779166666666
543,2019-03-15,88.92575,,88.92575
543,2019-03-16,132.81904166666666,,132.81904166666666
543,2019-03-17,151.62366666666665,,151.62366666666665
543,2019-03-18,141.44529166666666,,141.44529166666666
543,2019-03-19,141.64070833333332,,141.64070833333332
543,2019-03-20,156.92049999999998,,156.92049999999998
543,2019-03-21,33.82812499999999,,33.82812499999999
543,2019-03-22,76.26304166666667,,76.26304166666667
543,2019-03-23,141.90495833333335,,141.90495833333335
543,2019-03-24,156.02345833333334,,156.02345833333334